Location: Lombard
(41.8800°N, 88.0080°W)
Time: 03:04:14
(UTC-05:00)

CAS-4A - Pass Details

Date: 02 June 2022
Orbit: 523 x 537 km, 43.0° (Epoch: 27 June)

Event Time Altitude Azimuth Distance (km) Brightness Sun altitude
Rises 20:58:18 0° 278° (W) 2,662 ? -6.4°
Reaches altitude 10° 21:01:05 10° 259° (W) 1,766 ? -6.8°
Maximum altitude 21:03:49 18° 216° (SW) 1,343 ? -7.2°
Drops below altitude 10° 21:06:33 10° 173° (S) 1,754 ? -7.6°
Enters shadow 21:07:42 - 163° (SSE) 2,093 ? -7.8°
